DLH890 EDDF-EVRA

Flight info

Callsign DLH890
Flight time 1h 50m
Altitude 31000
Route TOBAK3W/25C TOBAK N858 FEDZA Y172 ETIDI/N0441F370 Y172 SISMI DCT ASMIG DCT MAG DCT BODLA DCT PENOR DCT ANFEV DCT DIPEB DCT NINTA DCT ADAXA DCT ORVIX
Aircraft A319/M-SDE2E3FGIJ1LORWXYZ/HB1

Departure

Time 2026-05-06 13:17
Airport Frankfurt Main Airport (EDDF)

Arrival

Time 2026-05-06 15:07
Airport Riga International Airport (EVRA)
Time Latitude Longitude Altitude Speed Heading
2026-05-06 12:40 50.04959 8.59077 363 ft 0 kts 159°
2026-05-06 13:09 50.04965 8.59073 362 ft 4 kts 159°
2026-05-06 13:09 50.04990 8.59058 361 ft 4 kts 159°
2026-05-06 13:09 50.05015 8.59044 363 ft 3 kts 159°
2026-05-06 13:09 50.05036 8.59035 360 ft 4 kts 185°
2026-05-06 13:10 50.05059 8.59049 359 ft 4 kts 229°
2026-05-06 13:10 50.05071 8.59080 359 ft 2 kts 249°
2026-05-06 13:10 50.05071 8.59082 359 ft 0 kts 249°
2026-05-06 13:12 50.05069 8.59075 359 ft 2 kts 249°
2026-05-06 13:13 50.05058 8.59028 365 ft 7 kts 249°
2026-05-06 13:13 50.05034 8.58928 360 ft 13 kts 249°
2026-05-06 13:13 50.04999 8.58782 359 ft 15 kts 249°
2026-05-06 13:13 50.04941 8.58666 363 ft 14 kts 184°
2026-05-06 13:14 50.04862 8.58700 363 ft 10 kts 160°
2026-05-06 13:14 50.04802 8.58733 365 ft 8 kts 160°
2026-05-06 13:14 50.04756 8.58759 369 ft 6 kts 160°
2026-05-06 13:14 50.04723 8.58771 369 ft 4 kts 179°
2026-05-06 13:15 50.04691 8.58767 370 ft 6 kts 185°
2026-05-06 13:15 50.04637 8.58758 370 ft 10 kts 187°
2026-05-06 13:15 50.04578 8.58713 371 ft 10 kts 218°
2026-05-06 13:15 50.04523 8.58646 371 ft 11 kts 218°
2026-05-06 13:16 50.04477 8.58544 370 ft 14 kts 248°
2026-05-06 13:16 50.04362 8.58067 369 ft 87 kts 250°
2026-05-06 13:16 50.04069 8.56843 364 ft 152 kts 249°
2026-05-06 13:16 50.03682 8.55229 900 ft 159 kts 248°
2026-05-06 13:17 50.03297 8.53611 1639 ft 163 kts 248°
2026-05-06 13:17 50.02863 8.51835 2044 ft 187 kts 248°
2026-05-06 13:17 50.02261 8.49951 2611 ft 196 kts 232°
2026-05-06 13:17 50.01233 8.48531 3363 ft 203 kts 212°
2026-05-06 13:18 49.99869 8.47886 4103 ft 209 kts 189°
2026-05-06 13:18 49.98444 8.47629 4895 ft 208 kts 190°
2026-05-06 13:18 49.96984 8.47314 5620 ft 211 kts 191°
2026-05-06 13:18 49.95534 8.46860 6249 ft 217 kts 200°
2026-05-06 13:19 49.94096 8.46121 6863 ft 224 kts 200°
2026-05-06 13:19 49.92524 8.45336 7247 ft 248 kts 202°
2026-05-06 13:19 49.91165 8.43752 8099 ft 250 kts 236°
2026-05-06 13:19 49.90572 8.41225 8993 ft 255 kts 264°
2026-05-06 13:20 49.90839 8.38501 9874 ft 262 kts 292°
2026-05-06 13:20 49.91958 8.36239 10759 ft 272 kts 320°
2026-05-06 13:20 49.93666 8.34856 11508 ft 286 kts 334°
2026-05-06 13:20 49.95573 8.33595 11863 ft 310 kts 334°
2026-05-06 13:21 49.97643 8.32267 12188 ft 334 kts 335°
2026-05-06 13:21 49.99844 8.30865 12734 ft 347 kts 335°
2026-05-06 13:21 50.02134 8.29556 13481 ft 355 kts 342°
2026-05-06 13:21 50.04598 8.28953 14261 ft 363 kts 355°
2026-05-06 13:22 50.07137 8.29188 15038 ft 369 kts
2026-05-06 13:22 50.09629 8.30258 15780 ft 374 kts 18°
2026-05-06 13:22 50.12104 8.31571 16502 ft 378 kts 18°
2026-05-06 13:22 50.14608 8.32893 17216 ft 381 kts 18°
2026-05-06 13:23 50.17132 8.34216 17927 ft 384 kts 18°
2026-05-06 13:23 50.19682 8.35552 18605 ft 388 kts 18°
2026-05-06 13:23 50.22253 8.36899 19253 ft 392 kts 17°
2026-05-06 13:23 50.24826 8.38379 19894 ft 397 kts 25°
2026-05-06 13:24 50.27086 8.40801 20487 ft 402 kts 44°
2026-05-06 13:24 50.28853 8.44281 21107 ft 405 kts 57°
2026-05-06 13:24 50.30403 8.47916 21715 ft 408 kts 57°
2026-05-06 13:24 50.31986 8.51639 22303 ft 412 kts 57°
2026-05-06 13:25 50.33582 8.55394 22882 ft 415 kts 57°
2026-05-06 13:25 50.35188 8.59174 23450 ft 419 kts 57°
2026-05-06 13:25 50.36811 8.62990 23977 ft 422 kts 56°
2026-05-06 13:25 50.38443 8.66832 24480 ft 425 kts 57°
2026-05-06 13:26 50.40095 8.70726 24968 ft 429 kts 57°
2026-05-06 13:26 50.41752 8.74636 25439 ft 432 kts 57°
2026-05-06 13:26 50.43424 8.78586 25885 ft 436 kts 57°
2026-05-06 13:26 50.45107 8.82569 26319 ft 440 kts 57°
2026-05-06 13:27 50.46802 8.86586 26760 ft 443 kts 57°
2026-05-06 13:27 50.48507 8.90638 27179 ft 446 kts 58°
2026-05-06 13:27 50.50224 8.94724 27600 ft 450 kts 58°
2026-05-06 13:27 50.51934 8.98801 28010 ft 453 kts 58°
2026-05-06 13:28 50.53674 9.02953 28402 ft 456 kts 58°
2026-05-06 13:28 50.55424 9.07138 28707 ft 459 kts 58°
2026-05-06 13:28 50.57185 9.11362 28770 ft 460 kts 58°
2026-05-06 13:29 50.60694 9.19794 28771 ft 460 kts 58°
2026-05-06 13:29 50.64210 9.28258 29029 ft 463 kts 58°
2026-05-06 13:29 50.65960 9.32474 29440 ft 466 kts 58°
2026-05-06 13:30 50.67737 9.36762 29810 ft 469 kts 59°
2026-05-06 13:30 50.69526 9.41089 30162 ft 472 kts 59°
2026-05-06 13:30 50.71323 9.45452 30500 ft 475 kts 59°
2026-05-06 13:30 50.73128 9.49842 30810 ft 479 kts 59°
2026-05-06 13:31 50.74948 9.54271 31116 ft 482 kts 59°
2026-05-06 13:31 50.76782 9.58737 31407 ft 485 kts 59°
2026-05-06 13:31 50.78619 9.63219 31746 ft 487 kts 59°
2026-05-06 13:31 50.80460 9.67716 32155 ft 487 kts 59°
2026-05-06 13:32 50.82300 9.72225 32554 ft 487 kts 59°
2026-05-06 13:32 50.84135 9.76731 32942 ft 488 kts 59°
2026-05-06 13:32 50.85971 9.81246 33310 ft 488 kts 59°
2026-05-06 13:32 50.87811 9.85774 33645 ft 490 kts 59°
2026-05-06 13:33 50.89655 9.90322 33898 ft 490 kts 59°
2026-05-06 13:33 50.91477 9.94819 34304 ft 490 kts 59°
2026-05-06 13:33 50.93316 9.99375 34675 ft 489 kts 59°
2026-05-06 13:33 50.95145 10.03923 35034 ft 489 kts 59°
2026-05-06 13:34 50.96977 10.08488 35351 ft 490 kts 59°
2026-05-06 13:34 50.98805 10.13045 35700 ft 489 kts 58°
2026-05-06 13:34 51.00877 10.17325 36050 ft 489 kts 47°
2026-05-06 13:34 51.03155 10.21264 36392 ft 488 kts 47°
2026-05-06 13:35 51.05458 10.25241 36696 ft 487 kts 47°
2026-05-06 13:35 51.10012 10.33103 36786 ft 476 kts 47°
2026-05-06 13:36 51.14474 10.40815 36782 ft 472 kts 47°
2026-05-06 13:36 51.18914 10.48525 36785 ft 471 kts 47°
2026-05-06 13:37 51.23344 10.56250 36784 ft 471 kts 48°
2026-05-06 13:37 51.27735 10.63932 36785 ft 471 kts 48°
2026-05-06 13:38 51.32153 10.71694 36782 ft 471 kts 48°
2026-05-06 13:38 51.36561 10.79460 36784 ft 471 kts 48°
2026-05-06 13:39 51.40946 10.87191 36783 ft 470 kts 48°
2026-05-06 13:39 51.45343 10.94960 36784 ft 470 kts 48°
2026-05-06 13:40 51.49730 11.02752 36782 ft 470 kts 48°
2026-05-06 13:40 51.54107 11.10561 36784 ft 470 kts 48°
2026-05-06 13:41 51.58483 11.18391 36788 ft 470 kts 48°
2026-05-06 13:41 51.62854 11.26223 36790 ft 471 kts 48°
2026-05-06 13:42 51.67218 11.34082 36790 ft 470 kts 49°
2026-05-06 13:42 51.71576 11.41952 36793 ft 470 kts 49°
2026-05-06 13:43 51.75908 11.49790 36798 ft 470 kts 49°
2026-05-06 13:43 51.80253 11.57670 36800 ft 470 kts 49°
2026-05-06 13:44 51.84596 11.65584 36806 ft 469 kts 49°
2026-05-06 13:44 51.88931 11.73490 36808 ft 469 kts 49°
2026-05-06 13:45 51.93257 11.81412 36804 ft 469 kts 49°
2026-05-06 13:45 51.99694 11.93267 36801 ft 468 kts 49°
2026-05-06 13:46 52.04001 12.01206 36800 ft 469 kts 49°
2026-05-06 13:46 52.08299 12.09159 36799 ft 469 kts 49°
2026-05-06 13:47 52.12593 12.17160 36803 ft 469 kts 49°
2026-05-06 13:47 52.16883 12.25164 36807 ft 468 kts 49°
2026-05-06 13:48 52.21165 12.33180 36814 ft 468 kts 49°
2026-05-06 13:48 52.25407 12.41152 36810 ft 468 kts 49°
2026-05-06 13:49 52.29676 12.49192 36811 ft 468 kts 49°
2026-05-06 13:49 52.33943 12.57236 36829 ft 468 kts 49°
2026-05-06 13:50 52.38199 12.65297 36830 ft 468 kts 50°
2026-05-06 13:50 52.42450 12.73381 36832 ft 467 kts 50°
2026-05-06 13:51 52.46685 12.81460 36828 ft 467 kts 50°
2026-05-06 13:51 52.50912 12.89552 36836 ft 467 kts 50°
2026-05-06 13:52 52.54414 12.96282 36838 ft 466 kts 50°
2026-05-06 13:52 52.58632 13.04399 36837 ft 466 kts 50°
2026-05-06 13:53 52.62847 13.12524 36844 ft 467 kts 50°
2026-05-06 13:53 52.67056 13.20665 36840 ft 467 kts 50°
2026-05-06 13:54 52.71252 13.28823 36844 ft 466 kts 50°
2026-05-06 13:54 52.75442 13.36991 36842 ft 466 kts 50°
2026-05-06 13:55 52.79622 13.45189 36841 ft 466 kts 50°
2026-05-06 13:55 52.83775 13.53338 36840 ft 466 kts 50°
2026-05-06 13:56 52.87945 13.61542 36844 ft 466 kts 50°
2026-05-06 13:56 52.92113 13.69768 36840 ft 465 kts 50°
2026-05-06 13:57 52.96263 13.77999 36837 ft 465 kts 51°
2026-05-06 13:57 53.00405 13.86253 36842 ft 465 kts 51°
2026-05-06 13:58 53.04546 13.94517 36842 ft 465 kts 51°
2026-05-06 13:58 53.08679 14.02777 36838 ft 464 kts 51°
2026-05-06 13:59 53.12806 14.11058 36830 ft 464 kts 51°
2026-05-06 13:59 53.16916 14.19355 36828 ft 464 kts 51°
2026-05-06 14:00 53.20993 14.27612 36836 ft 464 kts 51°
2026-05-06 14:00 53.25088 14.35936 36836 ft 464 kts 51°
2026-05-06 14:01 53.29757 14.43342 36831 ft 464 kts 34°
2026-05-06 14:01 53.35170 14.49219 36834 ft 464 kts 32°
2026-05-06 14:02 53.40576 14.55119 36832 ft 464 kts 32°
2026-05-06 14:02 53.45985 14.61054 36830 ft 464 kts 33°
2026-05-06 14:03 53.51396 14.67007 36830 ft 465 kts 33°
2026-05-06 14:03 53.56802 14.72958 36832 ft 465 kts 33°
2026-05-06 14:04 53.62213 14.78934 36830 ft 465 kts 33°
2026-05-06 14:04 53.67586 14.84892 36829 ft 465 kts 33°
2026-05-06 14:05 53.72996 14.90916 36836 ft 465 kts 33°
2026-05-06 14:05 53.78391 14.96941 36840 ft 465 kts 33°
2026-05-06 14:06 53.83790 15.02978 36839 ft 465 kts 33°
2026-05-06 14:06 53.89194 15.09041 36842 ft 466 kts 33°
2026-05-06 14:07 53.94606 15.15134 36848 ft 466 kts 33°
2026-05-06 14:07 54.00011 15.21237 36851 ft 467 kts 33°
2026-05-06 14:08 54.05417 15.27364 36860 ft 467 kts 34°
2026-05-06 14:08 54.10833 15.33526 36872 ft 467 kts 34°
2026-05-06 14:09 54.16212 15.39660 36875 ft 467 kts 34°
2026-05-06 14:09 54.21615 15.45847 36881 ft 468 kts 34°
2026-05-06 14:10 54.27021 15.52052 36884 ft 468 kts 34°
2026-05-06 14:10 54.32425 15.58272 36886 ft 468 kts 34°
2026-05-06 14:11 54.37828 15.64511 36889 ft 468 kts 34°
2026-05-06 14:11 54.43222 15.70760 36894 ft 468 kts 34°
2026-05-06 14:12 54.48618 15.77038 36903 ft 468 kts 34°
2026-05-06 14:12 54.54005 15.83324 36906 ft 468 kts 34°
2026-05-06 14:13 54.59395 15.89625 36909 ft 468 kts 34°
2026-05-06 14:13 54.64775 15.95947 36917 ft 468 kts 34°
2026-05-06 14:14 54.70158 16.02292 36911 ft 468 kts 34°
2026-05-06 14:14 54.75504 16.08614 36919 ft 468 kts 34°
2026-05-06 14:15 54.80877 16.14984 36907 ft 468 kts 34°
2026-05-06 14:15 54.86250 16.21376 36910 ft 468 kts 34°
2026-05-06 14:16 54.91617 16.27793 36914 ft 468 kts 34°
2026-05-06 14:16 54.96987 16.34215 36913 ft 468 kts 34°
2026-05-06 14:17 55.02354 16.40643 36909 ft 468 kts 34°
2026-05-06 14:17 55.07713 16.47107 36917 ft 468 kts 35°
2026-05-06 14:18 55.13065 16.53582 36915 ft 468 kts 35°
2026-05-06 14:18 55.18427 16.60087 36923 ft 467 kts 35°
2026-05-06 14:19 55.23732 16.66551 36909 ft 467 kts 35°
2026-05-06 14:19 55.29074 16.73082 36909 ft 468 kts 35°
2026-05-06 14:20 55.34414 16.79625 36913 ft 467 kts 35°
2026-05-06 14:20 55.39738 16.86177 36916 ft 467 kts 35°
2026-05-06 14:21 55.45065 16.92748 36912 ft 467 kts 35°
2026-05-06 14:21 55.50388 16.99338 36919 ft 467 kts 35°
2026-05-06 14:22 55.55708 17.05945 36918 ft 467 kts 35°
2026-05-06 14:22 55.61027 17.12578 36928 ft 468 kts 34°
2026-05-06 14:23 55.66769 17.17755 36930 ft 466 kts 17°
2026-05-06 14:23 55.72950 17.21180 36928 ft 465 kts 15°
2026-05-06 14:24 55.78782 17.26134 36929 ft 467 kts 34°
2026-05-06 14:24 55.83612 17.33815 36930 ft 466 kts 46°
2026-05-06 14:25 55.88143 17.42086 36931 ft 467 kts 46°
2026-05-06 14:25 55.92685 17.50364 36934 ft 467 kts 46°
2026-05-06 14:26 55.97195 17.58618 36938 ft 467 kts 46°
2026-05-06 14:26 56.01721 17.66937 36939 ft 467 kts 46°
2026-05-06 14:27 56.06241 17.75290 36934 ft 467 kts 46°
2026-05-06 14:27 56.10761 17.83665 36940 ft 468 kts 46°
2026-05-06 14:28 56.15247 17.92113 36943 ft 467 kts 51°
2026-05-06 14:28 56.18668 18.01926 36944 ft 463 kts 69°
2026-05-06 14:29 56.20550 18.12894 36938 ft 459 kts 78°
2026-05-06 14:29 56.22212 18.24002 36936 ft 460 kts 78°
2026-05-06 14:30 56.23774 18.35163 36934 ft 460 kts 81°
2026-05-06 14:30 56.25036 18.46369 36928 ft 460 kts 83°
2026-05-06 14:31 56.26220 18.57690 36921 ft 461 kts 82°
2026-05-06 14:31 56.27455 18.69030 36915 ft 462 kts 82°
2026-05-06 14:32 56.28726 18.80371 36910 ft 463 kts 82°
2026-05-06 14:32 56.30144 18.91700 36915 ft 466 kts 74°
2026-05-06 14:33 56.32254 19.02761 36914 ft 468 kts 73°
2026-05-06 14:33 56.34349 19.13870 36918 ft 469 kts 74°
2026-05-06 14:34 56.36422 19.24947 36929 ft 469 kts 74°
2026-05-06 14:34 56.38505 19.36114 36931 ft 470 kts 74°
2026-05-06 14:35 56.40581 19.47310 36931 ft 470 kts 74°
2026-05-06 14:35 56.42652 19.58513 36932 ft 470 kts 74°
2026-05-06 14:36 56.44711 19.69737 36937 ft 470 kts 74°
2026-05-06 14:36 56.46413 19.79057 36948 ft 469 kts 74°
2026-05-06 14:37 56.48448 19.90276 36904 ft 474 kts 74°
2026-05-06 14:37 56.49481 19.96018 36655 ft 484 kts 75°
2026-05-06 14:37 56.50522 20.01831 36407 ft 486 kts 75°
2026-05-06 14:38 56.51564 20.07649 36156 ft 487 kts 75°
2026-05-06 14:38 56.52614 20.13506 35905 ft 490 kts 75°
2026-05-06 14:38 56.53665 20.19382 35655 ft 490 kts 75°
2026-05-06 14:38 56.54710 20.25254 35402 ft 488 kts 75°
2026-05-06 14:39 56.56080 20.33010 35069 ft 487 kts 75°
2026-05-06 14:39 56.56776 20.36964 34902 ft 486 kts 75°
2026-05-06 14:39 56.57799 20.42793 34651 ft 484 kts 75°
2026-05-06 14:39 56.58821 20.48618 34400 ft 483 kts 75°
2026-05-06 14:40 56.59824 20.54338 33906 ft 480 kts 75°
2026-05-06 14:40 56.60846 20.60182 33271 ft 479 kts 76°
2026-05-06 14:40 56.61847 20.65935 32654 ft 477 kts 76°
2026-05-06 14:40 56.62825 20.71598 32056 ft 475 kts 76°
2026-05-06 14:41 56.63807 20.77301 31455 ft 472 kts 76°
2026-05-06 14:41 56.64783 20.82984 30854 ft 470 kts 76°
2026-05-06 14:41 56.65754 20.88650 30256 ft 467 kts 75°
2026-05-06 14:41 56.66717 20.94275 29673 ft 465 kts 75°
2026-05-06 14:42 56.67670 20.99866 29101 ft 461 kts 75°
2026-05-06 14:42 56.68613 21.05422 28540 ft 458 kts 76°
2026-05-06 14:42 56.69546 21.10931 27992 ft 454 kts 76°
2026-05-06 14:42 56.70470 21.16407 27450 ft 450 kts 76°
2026-05-06 14:43 56.71382 21.21836 26937 ft 447 kts 76°
2026-05-06 14:43 56.72287 21.27223 26431 ft 443 kts 76°
2026-05-06 14:43 56.73184 21.32575 25927 ft 440 kts 76°
2026-05-06 14:43 56.74072 21.37890 25403 ft 438 kts 76°
2026-05-06 14:44 56.74956 21.43191 24882 ft 435 kts 76°
2026-05-06 14:44 56.75833 21.48468 24337 ft 434 kts 76°
2026-05-06 14:44 56.76693 21.53662 23797 ft 432 kts 76°
2026-05-06 14:45 56.78418 21.64152 22686 ft 431 kts 76°
2026-05-06 14:45 56.79268 21.69357 22191 ft 427 kts 76°
2026-05-06 14:45 56.80114 21.74547 21777 ft 423 kts 76°
2026-05-06 14:45 56.80948 21.79661 21311 ft 419 kts 76°
2026-05-06 14:46 56.81775 21.84750 20819 ft 416 kts 76°
2026-05-06 14:46 56.82590 21.89799 20342 ft 413 kts 76°
2026-05-06 14:46 56.83401 21.94815 19862 ft 410 kts 76°
2026-05-06 14:46 56.84202 21.99789 19375 ft 407 kts 76°
2026-05-06 14:47 56.84994 22.04732 18885 ft 403 kts 76°
2026-05-06 14:47 56.85777 22.09628 18402 ft 401 kts 76°
2026-05-06 14:47 56.86556 22.14496 17919 ft 397 kts 76°
2026-05-06 14:47 56.87329 22.19337 17433 ft 394 kts 76°
2026-05-06 14:48 56.88093 22.24137 16940 ft 392 kts 76°
2026-05-06 14:48 56.88845 22.28909 16469 ft 389 kts 76°
2026-05-06 14:48 56.89591 22.33652 16006 ft 386 kts 76°
2026-05-06 14:48 56.90322 22.38301 15545 ft 384 kts 76°
2026-05-06 14:49 56.91065 22.42923 15362 ft 373 kts 75°
2026-05-06 14:49 56.91810 22.47434 15102 ft 365 kts 75°
2026-05-06 14:49 56.92549 22.51856 14732 ft 362 kts 75°
2026-05-06 14:49 56.93285 22.56251 14345 ft 359 kts 75°
2026-05-06 14:50 56.94008 22.60605 13797 ft 355 kts 75°
2026-05-06 14:50 56.94720 22.64923 13240 ft 352 kts 75°
2026-05-06 14:50 56.95422 22.69188 12888 ft 349 kts 75°
2026-05-06 14:50 56.96114 22.73434 12606 ft 347 kts 76°
2026-05-06 14:51 56.96795 22.77658 12272 ft 347 kts 76°
2026-05-06 14:51 56.97483 22.81897 11874 ft 345 kts 76°
2026-05-06 14:51 56.98169 22.86128 11452 ft 345 kts 75°
2026-05-06 14:51 56.98828 22.90245 11151 ft 338 kts 76°
2026-05-06 14:52 56.99487 22.94341 10787 ft 332 kts 75°
2026-05-06 14:52 57.00133 22.98351 10508 ft 320 kts 75°
2026-05-06 14:52 57.00746 23.02166 10312 ft 304 kts 77°
2026-05-06 14:52 57.01065 23.05919 9934 ft 293 kts 90°
2026-05-06 14:53 57.00942 23.09606 9563 ft 286 kts 99°
2026-05-06 14:53 57.00741 23.13164 9222 ft 284 kts 98°
2026-05-06 14:53 57.00542 23.16731 8950 ft 278 kts 97°
2026-05-06 14:53 57.00349 23.20182 8775 ft 265 kts 98°
2026-05-06 14:54 57.00160 23.23520 8358 ft 261 kts 98°
2026-05-06 14:54 56.99973 23.26811 7912 ft 256 kts 97°
2026-05-06 14:54 56.99791 23.30037 7524 ft 252 kts 97°
2026-05-06 14:54 56.99569 23.33211 7200 ft 250 kts 103°
2026-05-06 14:55 56.98988 23.36187 6912 ft 247 kts 117°
2026-05-06 14:55 56.98050 23.38823 6660 ft 247 kts 126°
2026-05-06 14:55 56.97035 23.41343 6389 ft 245 kts 126°
2026-05-06 14:55 56.96027 23.43852 6123 ft 244 kts 126°
2026-05-06 14:56 56.94971 23.46272 5995 ft 243 kts 129°
2026-05-06 14:56 56.93887 23.48570 5672 ft 241 kts 130°
2026-05-06 14:56 56.92777 23.50856 5285 ft 240 kts 130°
2026-05-06 14:56 56.91663 23.53140 4913 ft 239 kts 130°
2026-05-06 14:57 56.90563 23.55401 4550 ft 238 kts 129°
2026-05-06 14:57 56.89467 23.57661 4189 ft 235 kts 129°
2026-05-06 14:57 56.88411 23.59842 4065 ft 223 kts 129°
2026-05-06 14:57 56.87405 23.61923 3939 ft 213 kts 128°
2026-05-06 14:58 56.86439 23.63916 3811 ft 205 kts 128°
2026-05-06 14:58 56.85509 23.65833 3621 ft 199 kts 128°
2026-05-06 14:58 56.84595 23.67730 3364 ft 197 kts 128°
2026-05-06 14:58 56.83689 23.69612 3081 ft 197 kts 128°
2026-05-06 14:59 56.82801 23.71458 2813 ft 196 kts 127°
2026-05-06 14:59 56.81899 23.73328 2565 ft 196 kts 127°
2026-05-06 14:59 56.81001 23.75198 2503 ft 196 kts 127°
2026-05-06 14:59 56.80130 23.77008 2501 ft 186 kts 127°
2026-05-06 15:00 56.79284 23.78761 2505 ft 183 kts 127°
2026-05-06 15:00 56.78441 23.80496 2521 ft 185 kts 128°
2026-05-06 15:00 56.77580 23.82249 2492 ft 187 kts 128°
2026-05-06 15:00 56.76704 23.84056 2490 ft 189 kts 127°
2026-05-06 15:01 56.75837 23.85856 2487 ft 188 kts 127°
2026-05-06 15:01 56.74994 23.87633 2467 ft 185 kts 127°
2026-05-06 15:01 56.74296 23.89506 2517 ft 168 kts 105°
2026-05-06 15:01 56.74253 23.91481 2517 ft 154 kts 75°
2026-05-06 15:02 56.74752 23.93216 2526 ft 156 kts 50°
2026-05-06 15:02 56.75653 23.94300 2507 ft 160 kts 22°
2026-05-06 15:02 56.76782 23.94513 2538 ft 162 kts
2026-05-06 15:02 56.77885 23.94689 2446 ft 157 kts
2026-05-06 15:03 56.78948 23.94896 2319 ft 149 kts
2026-05-06 15:03 56.79958 23.95074 2133 ft 143 kts
2026-05-06 15:03 56.80939 23.95246 1956 ft 139 kts
2026-05-06 15:03 56.81891 23.95401 1752 ft 136 kts
2026-05-06 15:04 56.82806 23.95562 1608 ft 131 kts
2026-05-06 15:04 56.83705 23.95709 1427 ft 130 kts
2026-05-06 15:04 56.84607 23.95858 1250 ft 132 kts
2026-05-06 15:04 56.85507 23.95997 1088 ft 129 kts
2026-05-06 15:05 56.86391 23.96137 894 ft 126 kts
2026-05-06 15:05 56.87274 23.96285 740 ft 128 kts
2026-05-06 15:05 56.88167 23.96430 568 ft 129 kts
2026-05-06 15:05 56.89058 23.96577 377 ft 128 kts
2026-05-06 15:06 56.89949 23.96725 223 ft 127 kts
2026-05-06 15:06 56.90817 23.96859 48 ft 122 kts
2026-05-06 15:06 56.91568 23.96984 39 ft 87 kts
2026-05-06 15:06 56.92014 23.97056 36 ft 50 kts
2026-05-06 15:07 56.92316 23.97112 37 ft 37 kts 10°
2026-05-06 15:07 56.92512 23.97313 35 ft 25 kts 35°
2026-05-06 15:07 56.92616 23.97461 36 ft 13 kts 50°
2026-05-06 15:07 56.92573 23.97542 35 ft 11 kts 178°
2026-05-06 15:08 56.92494 23.97532 36 ft 12 kts 187°
2026-05-06 15:08 56.92408 23.97511 37 ft 13 kts 188°
2026-05-06 15:08 56.92312 23.97490 37 ft 15 kts 186°
2026-05-06 15:08 56.92207 23.97471 37 ft 16 kts 185°
2026-05-06 15:09 56.92125 23.97532 37 ft 10 kts 111°
2026-05-06 15:09 56.92132 23.97657 37 ft 8 kts 86°
2026-05-06 15:09 56.92141 23.97736 37 ft 5 kts 29°
2026-05-06 15:09 56.92175 23.97740 37 ft 5 kts
2026-05-06 15:10 56.92190 23.97743 37 ft 1 kts
2026-05-06 15:10 56.92192 23.97743 37 ft 0 kts